Regional Weather Roundup
Issued by NWS

Home | Current Version | Previous Version | Text Only | Print | Product List | Glossary Off
Versions: 1 2 3 4 5 6 7 8 9 10 11 12 13 14 15 16 17 18 19 20 21 22 23 24 25 26 27 28 29 30 31 32 33 34 35 36 37 38 39 40 41 42 43 44 45 46 47 48 49 50

000
ASUS43 KTOP 231608
RWRKS

WEATHER ROUNDUP FOR KANSAS
NATIONAL WEATHER SERVICE GOODLAND KS
1100 AM CDT FRI JUN 23 2017

NOTE:  "FAIR" INDICATES FEW OR NO CLOUDS BELOW 12,000 FEET WITH NO
SIGNIFICANT WEATHER AND/OR OBSTRUCTIONS TO VISIBILITY.

KSZ001>006-013>018-027>032-041>047-231700-
NORTHWEST KANSAS

CITY           SKY/WX    TMP DP  RH WIND       PRES   REMARKS
GOODLAND       CLOUDY    62  46  55 N16       30.21S
HAYS           LGT RAIN  62  57  83 N9        30.12F
HILL CITY      CLOUDY    67  47  48 N21       30.15F
RUSSELL        CLOUDY    64  54  69 N8        30.06F
$$

KSZ061>065-074>080-084>089-231700-
SOUTHWEST KANSAS

CITY           SKY/WX    TMP DP  RH WIND       PRES   REMARKS
DODGE CITY     CLOUDY   N/A N/A N/A MISG      30.08S
ELKHART          N/A     67  44  43 NE22        N/A
GARDEN CITY    CLOUDY    63  50  62 NE35      30.15R
GREAT BEND     LGT RAIN  60  54  80 N21G26    30.11R
LIBERAL        MOSUNNY   73  51  46 NE28G39   30.11R
PRATT          SUNNY     75  46  34 NE22G32   30.04R
$$

KSZ066>073-081>083-090>101-231700-
SOUTHEAST KANSAS

CITY           SKY/WX    TMP DP  RH WIND       PRES   REMARKS
CHANUTE        PTSUNNY   80  67  64 N16G22    29.87R
COFFEYVILLE    PTSUNNY   82  73  74 NE14      29.82R
HUTCHINSON     CLOUDY    79  51  37 NE15G26   29.99S
MEDICINE LODGE   N/A     82  48  30 NE30G38   29.96R
NEWTON         CLOUDY    77  53  43 N21G30    30.00R
PARSONS        CLOUDY    81  69  67 NE12G24   29.84R
WICHITA INTL   PTSUNNY   82  52  35 N24G33    29.96R
WICHITA JABRA  PTSUNNY   80  53  39 N23G35    29.97R
WICHITA MCCONL MOSUNNY   79  54  41 NE24G30   29.96R
WINFIELD       SUNNY     82  63  52 N20G33    29.92R
$$

KSZ007>012-019>026-033>040-048>060-102>105-231700-
NORTHEAST KANSAS

CITY           SKY/WX    TMP DP  RH WIND       PRES   REMARKS
CONCORDIA      CLOUDY    72  47  40 N14       30.08R
EMPORIA        CLOUDY    78  57  48 N18G25    29.94R
LAWRENCE       MOSUNNY   80  65  59 N10       29.91R
MANHATTAN      CLOUDY    75  54  47 N10G17    30.02R
MARYSVILLE     CLOUDY    72  50  46 N14       30.04R
OLATHE IND     MOSUNNY   79  61  53 N16       29.90R
OLATHE EXE     MOSUNNY   79  59  50 N16       29.89R
SALINA         LGT RAIN  70  57  63 N21       30.03R
TOPEKA BILLARD SUNNY     79  63  57 N13       29.92R
TOPEKA FORBES  MOSUNNY   79  63  57 N14       29.93R
$$




USA.gov is the U.S. government's official web portal to all federal, state and local government web resources and services.